Weather in Zelenyy Dol

Russia / Altai Krai     52°07′11″N   84°08′09″E
temp.,
°C
wind,
m/s
gust,
m/s
humid.,
%
clouds,
%
prec.,
mm/h
press.,
hPa
HPBL,
m
25 january, tue
tue2501:00−22s229843 0.0 103912
04:00−23s229543 0.0 103911
07:00−24ssw229236 0.0 103910
10:00−24s22887 0.0 103813
13:00−17wnw128545 0.0 1036112
16:00−16nw129441 0.0 103688
19:00−22s229818 0.0 10379
22:00−22s229292 0.0 103613
26 january, wed
wed2601:00−20sse2292100 0.0 103514
04:00−18sse2290100 0.0 103319
07:00−16sse1189100 0.0 103116
10:00−14sse2186100 0.0 103019
13:00−10n0174100 0.0 102888
16:00−10n1186100 0.0 102992
19:00−10se1296100 1.0 103062
22:00−9wnw1197100 2.2 103182
27 january, thu
thu2701:00−8wsw51284100 3.3 1032830
04:00−10w51283100 0.1 1033559
07:00−13sw1193100 0.1 103612
10:00−13s2294100 0.0 103817
13:00−10wnw1190100 0.1 1038226
16:00−10n119199 0.1 1038190
19:00−16se1110092 0.1 10409
22:00−19sse329937 0.0 104012
28 january, fri
fri2801:00−20s32946 0.0 103917
04:00−20s32875 0.0 103919
07:00−20sse32852 0.0 103818
10:00−20sse32830 0.0 103821
13:00−12se11740 0.0 103583
16:00−12ne22905 0.0 103442
19:00−20se22965 0.0 10359
22:00−20sse229425 0.0 103411
29 january, sat
sat2901:00−21s22925 0.0 103413
04:00−21sse328725 0.0 103414
07:00−22sse22852 0.0 103411
10:00−21sse22830 0.0 103415
13:00−13ene11750 0.0 103282
16:00−13ne22905 0.0 103253
19:00−21se22965 0.0 10349
22:00−20sse22947 0.0 103312